FW9253 Weather Reports


time (UTC)temp
C
wind
direction
speed
KPH
gust
KPH
rain 1hr
cm
rain 24hr
cm
rain mn
cm
humidity
%
barometer
mb
20260504045037 15 0 0.0 0.0 0.00 0.00 0.00 6 1015.7
20260504044137 15 292 0.0 6.4 0.00 0.00 0.00 6 1014.7
20260504043237 15 292 0.0 6.4 0.00 0.00 0.00 6 1014.7
20260504035637 12 0 0.0 0.0 0.00 0.00 0.00 26 1013.7
20260504033837 11 0 0.0 0.0 0.00 0.00 0.00 36 1013.7
20260504032937 10 0 0.0 0.0 0.00 0.00 0.00 39 1013.7
20260504032037 8 0 0.0 0.0 0.00 0.00 0.00 40 1013.7
20260504030237 7 0 0.0 0.0 0.00 0.00 0.00 47 1013.7
20260504025337 6 0 0.0 0.0 0.00 0.00 0.00 47 1013.7
20260504024437 6 0 0.0 0.0 0.00 0.00 0.00 49 1013.7
20260504023537 6 0 0.0 0.0 0.00 0.00 0.00 50 1013.7
20260504022637 5 0 0.0 0.0 0.00 0.00 0.00 50 1013.7
20260504021737 4 0 0.0 0.0 0.00 0.00 0.00 50 1013.7
20260504020837 4 0 0.0 0.0 0.00 0.00 0.00 50 1013.7
20260504015937 4 0 0.0 0.0 0.00 0.00 0.00 51 1013.7
20260504015037 4 0 0.0 0.0 0.00 0.00 0.00 49 1013.7
20260504014137 4 0 0.0 0.0 0.00 0.00 0.00 47 1013.7
20260504013237 4 0 0.0 0.0 0.00 0.00 0.00 46 1013.7
20260504012336 4 0 0.0 0.0 0.00 0.00 0.00 44 1014.7
20260504011437 4 0 0.0 0.0 0.00 0.00 0.00 43 1014.7
20260504010537 5 0 0.0 0.0 0.00 0.00 0.00 42 1013.7
20260504005636 5 0 0.0 0.0 0.00 0.00 0.00 39 1013.7
20260504004737 5 0 0.0 0.0 0.00 0.00 0.00 38 1013.7
20260504003836 6 0 0.0 0.0 0.00 0.00 0.00 35 1014.7
20260504002936 6 0 0.0 0.0 0.00 0.00 0.00 32 1014.7
20260504002036 7 0 0.0 0.0 0.00 0.00 0.00 31 1012.7
20260504001136 7 0 0.0 0.0 0.00 0.00 0.00 30 1013.7
20260503235336 8 248 0.0 1.6 0.00 0.00 0.00 29 1013.7
20260503234436 8 244 0.0 6.4 0.00 0.00 0.00 29 1013.7
20260503233536 8 0 0.0 0.0 0.00 0.00 0.00 29 1013.7
20260503231736 9 231 0.0 6.4 0.00 0.00 0.00 28 1013.7
20260503230836 9 0 0.0 0.0 0.00 0.00 0.00 28 1013.7
20260503225936 9 0 0.0 0.0 0.00 0.00 0.00 30 1013.7
20260503225036 9 0 0.0 0.0 0.00 0.00 0.00 30 1013.7
20260503223236 8 237 0.0 1.6 0.00 0.00 0.00 33 1013.7
20260503222336 8 0 0.0 0.0 0.00 0.00 0.00 37 1013.7
20260503220536 7 0 0.0 0.0 0.00 0.00 0.00 42 1014.7
20260503215636 7 0 0.0 0.0 0.00 0.00 0.00 46 1013.7
20260503214736 6 0 0.0 0.0 0.00 0.00 0.00 48 1013.7
20260503213836 6 0 0.0 0.0 0.00 0.00 0.00 51 1013.7
20260503212935 5 0 0.0 0.0 0.00 0.00 0.00 53 1013.7
20260503212036 5 0 0.0 0.0 0.00 0.00 0.00 54 1013.7
20260503211135 4 0 0.0 0.0 0.00 0.00 0.00 55 1013.7
20260503205350 4 0 0.0 0.0 0.00 0.00 0.00 56 1013.7
20260503204450 4 132 0.0 6.4 0.00 0.00 0.00 56 1013.7
20260503203550 3 0 0.0 0.0 0.00 0.00 0.00 57 1013.7
20260503201750 3 0 0.0 0.0 0.00 0.00 0.00 55 1013.7
20260503200850 4 0 0.0 0.0 0.00 0.00 0.00 55 1013.7
20260503194149 4 0 0.0 0.0 0.00 0.00 0.00 53 1013.7
20260503193250 4 112 0.0 1.6 0.00 0.00 0.00 52 1013.7
20260503192349 5 0 0.0 0.0 0.00 0.00 0.00 52 1013.7
20260503190549 5 0 0.0 0.0 0.00 0.00 0.00 49 1014.7
20260503184750 5 0 0.0 0.0 0.00 0.00 0.00 48 1014.7
20260503183849 6 0 0.0 0.0 0.00 0.00 0.00 47 1014.7
20260503182049 6 181 0.0 3.2 0.00 0.00 0.00 43 1014.7
20260503181149 7 0 0.0 0.0 0.00 0.00 0.00 41 1014.7
20260503180250 7 0 0.0 0.0 0.00 0.00 0.00 41 1014.7
20260503175349 7 0 0.0 0.0 0.00 0.00 0.00 40 1014.7
20260503174449 8 0 0.0 0.0 0.00 0.00 0.00 39 1014.7
20260503173549 8 0 0.0 0.0 0.00 0.00 0.00 39 1014.7
20260503172649 8 0 0.0 0.0 0.00 0.00 0.00 40 1014.7
20260503171750 8 0 0.0 0.0 0.00 0.00 0.00 39 1014.7
20260503170849 8 0 0.0 0.0 0.00 0.00 0.00 38 1015.7
20260503150249 13 0 0.0 0.0 0.00 0.00 0.00 6 1015.7
20260503130548 15 0 0.0 0.0 0.00 0.00 0.00 6 1016.7
20260503090247 15 306 0.0 8.0 0.00 0.00 0.00 6 1017.7
20260503080847 16 225 0.0 3.2 0.00 0.00 0.00 5 1018.8
20260503071447 15 32 1.6 4.8 0.00 0.00 0.00 6 1019.8
20260503070546 17 55 4.8 12.9 0.00 0.00 0.00 5 1019.8
20260503054446 15 292 0.0 6.4 0.00 0.00 0.00 27 1019.8
20260503052646 14 0 0.0 0.0 0.00 0.00 0.00 29 1018.8